TimeCST,TemperatureF,Dew PointF,Humidity,Sea Level PressureIn,VisibilityMPH,Wind Direction,Wind SpeedMPH,Gust SpeedMPH,PrecipitationIn,Events,Conditions,WindDirDegrees,DateUTC
12:15 AM,30.2,30.2,100,30.42,-9999.0,NNW,8.1,-,N/A,Snow,Light Snow,340,2013-11-23 06:15:00
12:35 AM,30.2,30.2,100,30.42,-9999.0,NNW,8.1,-,N/A,Snow,Light Snow,330,2013-11-23 06:35:00
12:55 AM,30.2,30.2,100,30.42,-9999.0,NNW,8.1,-,N/A,Snow,Light Snow,340,2013-11-23 06:55:00
1:15 AM,30.2,30.2,100,30.41,-9999.0,NNW,9.2,-,N/A,,Overcast,330,2013-11-23 07:15:00
1:35 AM,30.2,30.2,100,30.41,-9999.0,NNW,9.2,-,N/A,,Overcast,340,2013-11-23 07:35:00
1:55 AM,30.2,30.2,100,30.42,-9999.0,Calm,Calm,-,N/A,Snow,Light Snow,0,2013-11-23 07:55:00
2:15 AM,30.2,30.2,100,30.42,-9999.0,Calm,Calm,-,N/A,Rain,Freezing Rain,0,2013-11-23 08:15:00
2:35 AM,30.2,30.2,100,30.42,-9999.0,Calm,Calm,-,N/A,Rain,Freezing Rain,0,2013-11-23 08:35:00
2:55 AM,30.2,30.2,100,30.42,-9999.0,Calm,Calm,-,N/A,Rain,Freezing Rain,0,2013-11-23 08:55:00
3:15 AM,30.2,30.2,100,30.41,-9999.0,Calm,Calm,-,N/A,Rain,Freezing Rain,0,2013-11-23 09:15:00
3:35 AM,30.2,30.2,100,30.41,-9999.0,Calm,Calm,-,N/A,Rain,Freezing Rain,0,2013-11-23 09:35:00
3:55 AM,30.2,30.2,100,30.41,-9999.0,Calm,Calm,-,N/A,Rain,Freezing Rain,0,2013-11-23 09:55:00
4:15 AM,30.2,30.2,100,30.42,10.0,Calm,Calm,-,N/A,,Overcast,0,2013-11-23 10:15:00
4:35 AM,30.2,30.2,100,30.42,10.0,Calm,Calm,-,N/A,,Overcast,0,2013-11-23 10:35:00
4:55 AM,30.2,28.4,93,30.41,10.0,Calm,Calm,-,N/A,,Overcast,0,2013-11-23 10:55:00
5:15 AM,30.2,30.2,100,30.42,9.0,Calm,Calm,-,N/A,,Overcast,0,2013-11-23 11:15:00
5:35 AM,30.2,30.2,100,30.43,10.0,Calm,Calm,-,N/A,Rain,Freezing Rain,0,2013-11-23 11:35:00
5:55 AM,30.2,30.2,100,30.43,10.0,Calm,Calm,-,N/A,,Overcast,0,2013-11-23 11:55:00
6:15 AM,30.2,30.2,100,30.43,-9999.0,Calm,Calm,-,N/A,,Overcast,0,2013-11-23 12:15:00
6:35 AM,30.2,28.4,93,30.43,9.0,Calm,Calm,-,N/A,,Overcast,0,2013-11-23 12:35:00
6:55 AM,30.2,30.2,100,30.45,6.0,Calm,Calm,-,N/A,,Overcast,0,2013-11-23 12:55:00
7:15 AM,30.2,30.2,100,30.46,-9999.0,Calm,Calm,-,N/A,,Overcast,0,2013-11-23 13:15:00
7:35 AM,30.2,30.2,100,30.47,5.0,Calm,Calm,-,N/A,,Overcast,0,2013-11-23 13:35:00
7:55 AM,30.2,30.2,100,30.47,7.0,Calm,Calm,-,N/A,,Overcast,0,2013-11-23 13:55:00
8:15 AM,30.2,30.2,100,30.48,10.0,Calm,Calm,-,N/A,,Overcast,0,2013-11-23 14:15:00
8:35 AM,30.2,30.2,100,30.49,9.0,Calm,Calm,-,N/A,,Overcast,0,2013-11-23 14:35:00
8:55 AM,30.2,30.2,100,30.48,7.0,Calm,Calm,-,N/A,,Overcast,0,2013-11-23 14:55:00
9:15 AM,30.2,30.2,100,30.49,10.0,Calm,Calm,-,N/A,,Overcast,0,2013-11-23 15:15:00
9:35 AM,30.2,30.2,100,30.49,10.0,Calm,Calm,-,N/A,,Overcast,0,2013-11-23 15:35:00
9:55 AM,30.2,30.2,100,30.49,10.0,Calm,Calm,-,N/A,,Overcast,0,2013-11-23 15:55:00
10:15 AM,30.2,30.2,100,30.49,10.0,Calm,Calm,-,N/A,,Overcast,0,2013-11-23 16:15:00
10:35 AM,32.0,30.2,93,30.49,10.0,Calm,Calm,-,N/A,,Overcast,0,2013-11-23 16:35:00
10:55 AM,32.0,30.2,93,30.50,10.0,Calm,Calm,-,N/A,,Overcast,0,2013-11-23 16:55:00
11:15 AM,32.0,30.2,93,30.48,10.0,Calm,Calm,-,N/A,,Overcast,0,2013-11-23 17:15:00
11:35 AM,32.0,30.2,93,30.47,3.0,Calm,Calm,-,N/A,,Overcast,0,2013-11-23 17:35:00
11:55 AM,32.0,30.2,93,30.47,-9999.0,Calm,Calm,-,N/A,,Overcast,0,2013-11-23 17:55:00
12:15 PM,32.0,30.2,93,30.46,-9999.0,Calm,Calm,-,N/A,,Overcast,0,2013-11-23 18:15:00
12:35 PM,32.0,32.0,100,30.45,-9999.0,Calm,Calm,-,N/A,,Overcast,0,2013-11-23 18:35:00
12:55 PM,32.0,30.2,93,30.44,-9999.0,Calm,Calm,-,N/A,,Overcast,0,2013-11-23 18:55:00
1:15 PM,32.0,32.0,100,30.44,-9999.0,Calm,Calm,-,N/A,,Overcast,0,2013-11-23 19:15:00
1:35 PM,32.0,30.2,93,30.44,-9999.0,Calm,Calm,-,N/A,,Overcast,0,2013-11-23 19:35:00
1:55 PM,33.8,32.0,93,30.43,-9999.0,Calm,Calm,-,N/A,,Overcast,0,2013-11-23 19:55:00
2:15 PM,32.0,30.2,93,30.42,-9999.0,Calm,Calm,-,N/A,,Overcast,0,2013-11-23 20:15:00
2:35 PM,33.8,32.0,93,30.41,-9999.0,Calm,Calm,-,N/A,,Overcast,0,2013-11-23 20:35:00
2:55 PM,33.8,32.0,93,30.41,1.5,Calm,Calm,-,N/A,,Overcast,0,2013-11-23 20:55:00
3:15 PM,32.0,32.0,100,30.41,2.5,Calm,Calm,-,N/A,,Overcast,0,2013-11-23 21:15:00
3:35 PM,32.0,30.2,93,30.41,2.5,Calm,Calm,-,N/A,,Overcast,0,2013-11-23 21:35:00
3:55 PM,32.0,30.2,93,30.42,2.5,Calm,Calm,-,N/A,,Overcast,0,2013-11-23 21:55:00
4:15 PM,33.8,32.0,93,30.43,2.5,Calm,Calm,-,N/A,,Overcast,0,2013-11-23 22:15:00
4:35 PM,33.8,32.0,93,30.43,2.0,Calm,Calm,-,N/A,,Overcast,0,2013-11-23 22:35:00
4:55 PM,32.0,32.0,100,30.42,2.0,Calm,Calm,-,N/A,,Overcast,0,2013-11-23 22:55:00
5:15 PM,33.8,32.0,93,30.43,2.0,Calm,Calm,-,N/A,,Overcast,0,2013-11-23 23:15:00
5:35 PM,33.8,32.0,93,30.43,3.0,Calm,Calm,-,N/A,,Overcast,0,2013-11-23 23:35:00
5:55 PM,33.8,33.8,100,30.43,-9999.0,Calm,Calm,-,N/A,,Overcast,0,2013-11-23 23:55:00
6:15 PM,33.8,33.8,100,30.43,-9999.0,Calm,Calm,-,N/A,,Overcast,0,2013-11-24 00:15:00
6:35 PM,33.8,33.8,100,30.43,-9999.0,Calm,Calm,-,N/A,,Overcast,0,2013-11-24 00:35:00
6:55 PM,33.8,32.0,93,30.43,3.0,Calm,Calm,-,N/A,,Overcast,0,2013-11-24 00:55:00
7:15 PM,33.8,32.0,93,30.44,3.0,Calm,Calm,-,N/A,,Overcast,0,2013-11-24 01:15:00
7:35 PM,33.8,33.8,100,30.44,3.0,Calm,Calm,-,N/A,,Overcast,0,2013-11-24 01:35:00
7:55 PM,33.8,33.8,100,30.45,4.0,Calm,Calm,-,N/A,,Overcast,0,2013-11-24 01:55:00
8:15 PM,33.8,32.0,93,30.46,4.0,Calm,Calm,-,N/A,,Overcast,0,2013-11-24 02:15:00
8:35 PM,33.8,32.0,93,30.46,8.0,Calm,Calm,-,N/A,,Overcast,0,2013-11-24 02:35:00
8:55 PM,33.8,32.0,93,30.46,9.0,Calm,Calm,-,N/A,,Mostly Cloudy,0,2013-11-24 02:55:00
9:15 PM,33.8,32.0,93,30.46,10.0,North,10.4,-,N/A,,Overcast,10,2013-11-24 03:15:00
9:35 PM,33.8,32.0,93,30.46,10.0,North,9.2,-,N/A,,Overcast,10,2013-11-24 03:35:00
9:55 PM,33.8,32.0,93,30.46,10.0,North,8.1,-,N/A,,Overcast,10,2013-11-24 03:55:00
10:15 PM,33.8,32.0,93,30.46,10.0,North,9.2,-,N/A,,Overcast,10,2013-11-24 04:15:00
10:35 PM,33.8,32.0,93,30.45,10.0,NNE,10.4,-,N/A,,Overcast,20,2013-11-24 04:35:00
10:55 PM,33.8,32.0,93,30.46,10.0,NNE,8.1,-,N/A,,Overcast,20,2013-11-24 04:55:00
11:15 PM,33.8,30.2,87,30.46,10.0,NNE,8.1,-,N/A,,Overcast,20,2013-11-24 05:15:00
11:35 PM,33.8,30.2,87,30.46,10.0,NNE,11.5,-,N/A,,Overcast,20,2013-11-24 05:35:00
11:55 PM,33.8,30.2,87,30.47,10.0,North,10.4,-,N/A,,Overcast,10,2013-11-24 05:55:00